{"data":{"norad_id":55826,"epoch":"2026-09-19T22:56:34.054080Z","epoch_age_seconds":65171,"freshness":"FRESH","line1":"1 55826U 23029AG  26262.95594970  .00000034  00000+0  51021-4 0  9997","line2":"2 55826  87.9132 255.5569 0001619 107.4910 252.6401 13.20772648173667","mean_motion":13.20772648,"eccentricity":0.0001619,"inclination_deg":87.9132,"raan_deg":255.5569,"arg_perigee_deg":107.491,"mean_anomaly_deg":252.6401,"bstar":5.1021e-5,"rev_number":17366,"period_min":109.0270912394,"perigee_km":1180.5462372254,"apogee_km":1182.9941351723,"semimajor_km":7559.9071861989,"source":"CELESTRAK","updated_at":"2026-09-20T09:00:44.765474Z"}}